Regional Weather Roundup
Issued by NWS Jackson, KY

Home | Current Version | Previous Version | Graphics & Text | Print | Product List | Glossary On
Versions: 1 2 3 4 5 6 7 8 9 10 11 12 13 14 15 16 17 18 19 20 21 22 23 24 25 26 27 28 29 30 31 32 33 34 35 36 37 38 39 40 41 42 43 44 45 46 47 48 49 50
000
ASUS43 KJKL 271310
RWRJKL

EAST KENTUCKY HOURLY WEATHER ROUNDUP
NATIONAL WEATHER SERVICE JACKSON KY
900 AM EDT TUE JUN 27 2017

NOTE: "FAIR" INDICATES FEW OR NO CLOUDS BELOW 12,000 FEET WITH
NO SIGNIFICANT WEATHER AND/OR OBSTRUCTIONS TO VISIBILITY.

* THESE REPORTS ARE NOT UNDER NWS QUALITY CONTROL AND MAY NOT
  REPORT WEATHER SUCH AS PRECIPITATION AND FOG.

KYZ079-080-083-085-087-088-110-112-115-119-120-271400
...EASTERN KENTUCKY...

CITY           SKY/WX    TMP DP  RH WIND       PRES   REMARKS
JACKSON        PTSUNNY   60  54  80 CALM      30.16S
LONDON         SUNNY     64  51  62 NE5       30.17R
SOMERSET*      SUNNY     63  50  63 E3        30.18R HAZE
MONTICELLO*    SUNNY     64  53  67 NW8       30.19R
WILLIAMSBURG*  SUNNY     63  59  88 CALM      30.17S
MIDDLESBORO*   SUNNY     61  56  82 CALM      30.17S
HARLAN APT*    MOSUNNY   61  54  77 CALM      30.18R
PIKE CO APT*     N/A     61  54  76 W3        30.17R
BIG SANDY APT* CLOUDY    62  53  73 CALM      30.16F
MOREHEAD APT*  HAZE      63  54  72 NW7       30.17R VSB 1
ASHLAND*       SUNNY     64  55  72 NW6       30.12R
$$

KYZ035-036-041-042-044-050-067-078-099-271400
...CENTRAL KENTUCKY...

CITY           SKY/WX    TMP DP  RH WIND       PRES   REMARKS
MT STERLING*   SUNNY     63  55  77 NW3       30.18R
FLEMING/MASON* SUNNY     60  52  76 NW6       30.17R
DANVILLE*      SUNNY     63  52  67 CALM      30.18R
LEXINGTON      SUNNY     64  53  67 W5        30.16R
FRANKFORT      SUNNY     63  53  70 NW6       30.15R
LOUISVILLE     MOSUNNY   67  55  65 NE5       30.16R
LEBANON*         N/A    N/A N/A N/A MISG        N/A
GLASGOW*       SUNNY     65  52  62 E3        30.16S
BOWLING GREEN  SUNNY     66  56  70 E5        30.16R
$$

KYZ091>093-OHZ055-061-077-WVZ005-015-034-035-042-271400
...SOUTHERN OHIO/WEST VIRGINIA...

CITY           SKY/WX    TMP DP  RH WIND       PRES   REMARKS
COVINGTON      SUNNY     62  52  69 NW5       30.15R
COLUMBUS       MOSUNNY   60  51  72 NW13      30.12R
DAYTON         SUNNY     60  50  69 NW9       30.15R
WILMINGTON     SUNNY     60  51  72 NW6       30.14R
HUNTINGTON     MOSUNNY   65  53  65 W6        30.14R
CHARLESTON     MOSUNNY   65  52  62 VRB6      30.13R
PINEVILLE*     SUNNY     59  56  89 MISG      30.21R
BECKLEY        SUNNY     60  48  64 CALM      30.16S
BLUEFIELD      SUNNY     56  49  77 W6        30.18R
LOGAN CO APT*  CLOUDY    59  55  88 CALM      30.16R
$$

VAZ002-007-008-TNZ017-027-036-066-071-271400
...SOUTHWEST VIRGINIA/EAST TENNESSEE...

CITY           SKY/WX    TMP DP  RH WIND       PRES   REMARKS
WISE*          MOSUNNY   61  46  59 CALM      30.20S
JONESVILLE*      N/A     63  55  77 S3        30.18S
ABINGDON*      SUNNY     66  52  61 CALM      30.17R
BRISTOL        CLOUDY    65  58  78 CALM      30.15R
MORRISTOWN*    SUNNY     68  57  68 N3        30.13S
SEVIERVILLE*   SUNNY     64  55  72 CALM      30.14R
KNOXVILLE      PTSUNNY   67  55  65 N3        30.13R
LAFOLLETTE*    SUNNY     66  55  68 CALM      30.19R
OAK RIDGE      SUNNY     67  57  70 CALM      30.16R
CROSSVILLE     CLOUDY    63  54  72 N3        30.18R
NASHVILLE      PTSUNNY   68  54  60 CALM      30.16R
$$

...KEY TO REMARKS...
VSB - VISIBILITY IN MILES
WCI - WIND CHILL INDEX
HX  - HEAT INDEX

$$



USA.gov is the U.S. government's official web portal to all federal, state and local government web resources and services.